Regional Weather Roundup
Issued by NWS

Home | Current Version | Previous Version | Text Only | Print | Product List | Glossary Off
Versions: 1 2 3 4 5 6 7 8 9 10 11 12 13 14 15 16 17 18 19 20 21 22 23 24 25 26 27 28 29 30 31 32 33 34 35 36 37 38 39 40 41 42 43 44 45 46 47 48 49 50

000
ASUS45 KPSR 211600
RWRAZ

PRELIMINARY ARIZONA REGIONAL HOURLY WEATHER ROUNDUP
NATIONAL WEATHER SERVICE PHOENIX AZ
900 AM MST TUE OCT 21 2014

NOTE: FAIR INDICATES FEW OR NO CLOUDS BELOW 12,000 FEET WITH NO
SIGNIFICANT WEATHER AND/OR OBSTRUCTIONS TO VISIBILITY.

AZZ001>003-036-211700-
NORTHWEST ARIZONA

CITY           SKY/WX    TMP DP  RH WIND       PRES   REMARKS
KINGMAN        SUNNY     72  45  37 S13       29.99F
$$

AZZ004>008-015-016-018-211700-
NORTH CENTRAL ARIZONA

CITY           SKY/WX    TMP DP  RH WIND       PRES   REMARKS
GRAND CANYON   PTSUNNY   53  40  61 S5        30.18R
PRESCOTT       MOSUNNY   58  41  53 CALM      30.11S
FLAGSTAFF      SUNNY     56  43  61 CALM      30.20S
PAYSON         SUNNY     61  46  59 VRB5      30.14S
$$

AZZ009>014-017-211700-
NORTHEAST ARIZONA

CITY           SKY/WX    TMP DP  RH WIND       PRES   REMARKS
WINSLOW        NOT AVBL
SAINT JOHNS    SUNNY     52  44  74 CALM      30.15R
$$

AZZ023-211700-
GREATER PHOENIX AREA

CITY           SKY/WX    TMP DP  RH WIND       PRES   REMARKS
PHOENIX        MOSUNNY   78  52  40 E12       29.90R
GLENDALE       MOSUNNY   73  52  46 CALM      29.92R
LUKE AFB       MOSUNNY   74  52  44 CALM      29.91R
DEER VALLEY    SUNNY     77  51  40 SE3       29.92R
SCOTTSDALE     SUNNY     76  50  40 CALM      29.93R
MESA-GATEWAY   MOSUNNY   73  54  49 SE5       29.93R
CHANDLER       MOSUNNY   75  54  46 NE6       29.92R
$$

AZZ027-028-211700-
SOUTHWEST MARICOPA COUNTY AND PINAL COUNTY

CITY           SKY/WX    TMP DP  RH WIND       PRES   REMARKS
CASA GRANDE    SUNNY     73  52  46 CALM      29.92S
GILA BEND      SUNNY     75  50  41 E6        29.89R
$$

AZZ503-504-507>509-211700-
SOUTHEAST ARIZONA

CITY           SKY/WX    TMP DP  RH WIND       PRES   REMARKS
TUCSON         SUNNY     72  50  45 SE16      29.99R
DAVIS-MONTHAN  SUNNY     71  50  47 SE12      29.98R
NOGALES        SUNNY     65  32  29 MISG      30.04R
SIERRA VISTA   MOSUNNY   64  46  52 VRB5      30.09R
SAFFORD        SUNNY     65  51  60 SE9       30.05R
$$

AZZ020-021-025-026-031-211700-
SOUTHWEST ARIZONA

CITY           SKY/WX    TMP DP  RH WIND       PRES   REMARKS
YUMA           PTSUNNY   79  54  41 NE5       29.84R
$$

CAZ031-033-041-043-047-048-061-211700-
SOUTHERN CALIFORNIA

CITY           SKY/WX    TMP DP  RH WIND       PRES   REMARKS
DOWNTOWN L.A.  SUNNY     67  59  75 CALM      29.92R HAZE
L.A. AIRPORT   MOSUNNY   66  61  84 SE3       29.93R HAZE
SAN DIEGO      PTSUNNY   69  60  73 E3        29.93R
BURBANK        CLOUDY    60  58  92 CALM      29.94R FOG
ONTARIO        CLOUDY    62  59  90 S3        29.94R FOG
RIVERSIDE      CLOUDY    61  59  93 CALM      29.94R FOG
PALM SPRINGS   SUNNY     77  51  40 CALM      29.87R
EL CENTRO NAS  MOSUNNY   76  51  41 SW5       29.82S
IMPERIAL       SUNNY     77  53  43 CALM      29.82R
BLYTHE         SUNNY     78  45  30 N5        29.86R
$$

NVZ020-UTZ003-211700-
SOUTHERN NEVADA-UTAH

CITY           SKY/WX    TMP DP  RH WIND       PRES   REMARKS
LAS VEGAS      NOT AVBL
SALT LAKE CITY MOSUNNY   69  40  34 S18G25    29.91R
$$

NMZ009-TXZ055-211700-
NEW MEXICO-WEST TEXAS

CITY           SKY/WX    TMP DP  RH WIND       PRES   REMARKS
ALBUQUERQUE    MOSUNNY   56  48  74 SW7       30.17S
EL PASO        MOSUNNY   64  53  67 NE5       30.10S
$$


........................KEY........................
SKY/WX - SKY CONDITION/WEATHER
TMP    - TEMPERATURE IN FAHRENHEIT
DP     - DEW POINT IN FAHRENHEIT
RH     - RELATIVE HUMIDITY IN PERCENT
WIND   - DIRECTION AND SPEED IN MILES PER HOUR (MPH)
VRB    - VARIABLE WIND DIRECTION
PRES   - MEAN SEA LEVEL PRESSURE IN INCHES OF MERCURY
         F - FALLING PRESSURE   R - RISING PRESSURE
         S - STEADY PRESSURE
VSB    - VISIBILITY IN MILES
HX     - HEAT INDEX IN FAHRENHEIT
WCI    - WIND CHILL INDEX IN FAHRENHEIT
TC     - TEMPERATURE IN CELSIUS WHICH IS ALSO KNOWN AS
         TEMPERATURE IN CENTIGRADE
AFB    - AIR FORCE BASE
         LUKE AFB IS LUKE AIR FORCE BASE
         DAVIS-MONTHAN IS DAVIS-MONTHAN AIR FORCE BASE
NAS    - NAVAL AIR STATION
         EL CENTRO NAS IS EL CENTRO NAVAL AIR STATION
N/A    - NOT AVAILABLE



USA.gov is the U.S. government's official web portal to all federal, state and local government web resources and services.